SL-16 DEB, 42252

Orbit data source: Space-Track

SL-16 DEB, 42252 is space debris in LEO originally from a launch on Fri, 26 Mar 1993 UTC launched from the Tyuratam Missile And Space Complex (TTMTR). Debris objects in space refer to the collection of defunct objects orbiting the Earth. Examples of debris include non-operational satellites, rocket bodies, and fragments generated from explosions, collisions, or faulty payload assembly.

Loading next visibility...
Identifier
42252, 1993-016DG
Orbit
LEO
Country
Flag of CISCIS
Related business
Manufacturer
Unknown
Mission
Spacecraft
Bus & Motor
Unknown
Mass
Unknown
Launch date (UTC)
1993-03-26 (33 years ago)
Launch vehicle
Unknown
Launch site
Tyuratam Missile And Space Complex (TTMTR)
Object type
Payload
Rocket body
Debris
Shape & HBR
Unknown shape, 0.1 m
Radar Cross Section
Medium (>0.1 m² and <1 m²)

Expand to show TLE details & history
Last TLE update: 1 week ago

TLE from 1 week ago
0 SL-16 DEB
1 42252U 93016DG  26248.88931684  .00009836  00000-0  20255-2 0  9995
2 42252  70.9683  66.9034 0072560 240.2175 119.1742 14.59042123111749
Epoch: 2026-09-05T21:20Z
TLE epoch observation values (Epoch: 2026-09-05T21:20:36.974Z)
Latitude
0.00002°
Longitude
121.75704°
Altitude
724.025 km
Speed
7.48 km/s
True Right ascension
04h 27m 36s
True Declination
0° 00' 00"
Sunlit
Object was in daylight at epoch
Visualization orbit readout
Latitude
Unknown
Longitude
Unknown
Altitude
Unknown
Speed
Unknown
Apparent Right ascension
Unknown
Apparent Declination
Unknown
Sunlit
N/A
Visualization observer readout
Local Sidereal Time
14:41:44
Azimuth
Unknown
Elevation
Unknown
Doppler factor
Unknown
Orbital elements
Apogee altitude
745.47 km
Perigee altitude
642.837 km
Semi-major axis
7,072.29 km
Eccentricity
0.00726
Inclination
70.9683°
RAAN
66.9034°
Arg. of periapsis
240.2175°
True anomaly
119.89698°
Mean anomaly
119.1742°
Eccentric anomaly
119.53591°
Mean motion
3.64925 °/min
Orbital period
98.65 mins
BSTAR
0.0020255
Loading maneuver chart data...
Computing Atmospheric mass density...
Loading historical data...
Loading historical data...
Loading historical data...
Loading historical data...
Loading historical data...
Loading historical data...
Loading historical data...

Documentation

Showing up to 5 results
|